Hlavní strana
METAR-TAF:

METAR-TAF

Letiště :

Tadoule Lake, Manitoba, Kanada

zeměpisná šířka: 58-42-22N, zeměpisná délka: 98-30-44W, výška: 281 m

Aktuální stav počasí

Zpráva byla vytvořena před 23 minutami, v 10:00 UTC
Severoseverozápadní vítr 6 kt
Teplota -26°C
Vlhkost vzduchu 76%
Tlak 1024 hPa
Viditelnost: 14.5 km
Zataženo ve výšce 1100 ft
slabé sněžení

METAR: CYBQ 161000Z AUTO 34006KT 9SM -SN OVC011 M26/M29 A3023 RMK SLP276

Čas: 04:23 (10:23 UTC)


TAF: chybějící

Stav a předpovědi počasí z více než 4 000 letišť (zprávy METAR a TAF).

Červené a žluté tečky na mapě představují dostupné meteorologické stanice.

Když kurzor umístíte na tečku, zobrazí se název stanice.

Pak kliknutím zobrazíte stav a předpověď počasí.

Chcete-li změnit mapu, kliknutím na zelené tlačítko se znaménkem +mapu přiblížíte, kliknutím na zelené tlačítko se znaménkem – mapu oddálíte a kliknutím na zelené šipky přejdete na sousední mapy.


METAR-TAF: